SL-6 R/B(2), 12384

Orbit data source: Space-Track

SL-6 R/B(2), 12384 is space debris in HEO originally from a launch on Tue, 31 Mar 1981 UTC launched from the Plesetsk Missile And Space Complex (PKMTR). Debris objects in space refer to the collection of defunct objects orbiting the Earth. Examples of debris include non-operational satellites, rocket bodies, and fragments generated from explosions, collisions, or faulty payload assembly.

Loading next visibility...
Identifier
12384, 1981-031D
Orbit
HEO
Country
Flag of CISCIS
Related business
Manufacturer
NPO Energiya
Mission
Spacecraft
Bus & Motor
BLOK-L, Unknown motor
Mass
~900 kg wet, ~900 kg dry
Launch date (UTC)
1981-03-31 (45 years ago)
Launch vehicle
Unknown
Launch site
Plesetsk Missile And Space Complex (PKMTR)
Object type
Payload
Rocket body
Debris
Shape & HBR
Unknown
Radar Cross Section
Large (>1 m²)

Expand to show TLE details & history
Last TLE update: 1 day ago

TLE from 1 day ago
0 SL-6 R/B(2)
1 12384U 81031D   25303.10359466  .00000684  00000-0  00000-0 0  9996
2 12384  67.5529  85.7238 6213055   4.2290 359.1083  2.03533399331436
Epoch: 2025-10-30T02:29Z
TLE epoch observation values (Epoch: 2025-10-30T02:29:10.578Z)
Latitude
-0.00035°
Longitude
9.75055°
Altitude
3,588.239 km
Speed
8.052 km/s
True Right ascension
05h 42m 50s
True Declination
0° 00' 01"
Sunlit
Object was in daylight at epoch
Visualization orbit readout
Latitude
Unknown
Longitude
Unknown
Altitude
Unknown
Speed
Unknown
Apparent Right ascension
Unknown
Apparent Declination
Unknown
Sunlit
N/A
Visualization observer readout
Local Sidereal Time
07:01:10
Azimuth
Unknown
Elevation
Unknown
Doppler factor
Unknown
Orbital elements
Apogee altitude
36,262.826 km
Perigee altitude
3,581.675 km
Semi-major axis
26,300.388 km
Eccentricity
0.62131
Inclination
67.5529°
RAAN
85.7238°
Arg. of periapsis
4.229°
True anomaly
355.13237°
Mean anomaly
359.1083°
Eccentric anomaly
357.64642°
Mean motion
0.50886 °/min
Orbital period
707.46 mins
BSTAR
0
Loading maneuver chart data...
Computing Atmospheric mass density...
Loading historical data...
Loading historical data...
Loading historical data...
Loading historical data...
Loading historical data...
Loading historical data...
Loading historical data...

Documentation

Showing up to 5 results
|